Weather History for PHTO - July, 2013

Change the Weather History Date:

Friday, July 5, 2013

  Actual Average Record
Temperature  
Mean Temperature 78 °F 76 °F  
Max Temperature 85 °F 83 °F 87 °F (1968)
Min Temperature 71 °F 69 °F 64 °F (1952)
Degree Days  
Heating Degree Days 0 0  
Month to date heating degree days 0 0  
Since 1 June heating degree days 0 0  
Since 1 July heating degree days 0 0  
Cooling Degree Days 13 11  
Month to date cooling degree days 59 55  
Year to date cooling degree days 1533 1429  
Since 1 June cooling degree days 380 361  
Growing Degree Days 28 (Base 50)    
Moisture  
Dew Point 67 °F    
Average Humidity 74    
Maximum Humidity 90    
Minimum Humidity 58    
Precipitation  
Precipitation 0.02 in 0.31 in 2.16 in (1957)
Month to date precipitation 0.87 1.50  
Year to date precipitation 52.42 60.78  
Snow  
Snow 0.00 in - - ()
Month to date snowfall 0.0  
Since 1 June snowfall 0.0  
Since 1 July snowfall 0.0  
Snow Depth 0.00 in    
Sea Level Pressure  
Sea Level Pressure 30.01 in    
Wind  
Wind Speed 6 mph (SE)    
Max Wind Speed 14 mph    
Max Gust Speed 19 mph    
Visibility 10 miles    
Events Rain    
T = Trace of Precipitation, MM = Missing Value Source: NWS Daily Summary

Daily Weather History Graph

Daily Weather History Graph

Search for Another Location

Airport or City:

Trip Planner

Search our weather history database for the weather conditions in past years. The results will help you decide how hot, cold, wet, or windy it might be!

Date:

Astronomy

Jul. 05, 2013 Rise Set
Actual Time 5:46 AM HST 7:03 PM HST
Civil Twilight 5:22 AM HST 7:27 PM HST
Nautical Twilight 4:53 AM HST 7:56 PM HST
Astronomical Twilight 4:23 AM HST 8:26 PM HST
Moon 3:47 AM HST (7/5) 5:12 PM HST (7/5)
Length of Visible Light 14h 05m
Length of Day
13h 16m
Waning Crescent, 5% of the Moon is Illuminated
Jul 5
Waning Crescent
Jul 7
New
Jul 15
First Quarter
Jul 22
Full
Jul 29
Last Quarter

Hourly Weather History & Observations

Time (HST) Temp. Heat Index Dew Point Humidity Pressure Visibility Wind Dir Wind Speed Gust Speed Precip Events Conditions
12:53 AM 72.0 °F - 66.9 °F 84% 30.02 in 10.0 mi Calm Calm - N/A   Overcast
1:14 AM 72.0 °F - 66.9 °F 84% 30.02 in 10.0 mi Calm Calm - N/A   Overcast
1:23 AM 73.0 °F - 66.9 °F 81% 30.02 in 10.0 mi Calm Calm - N/A   Overcast
1:53 AM 72.0 °F - 66.9 °F 84% 30.01 in 10.0 mi SSE 3.5 mph - N/A   Overcast
2:53 AM 71.1 °F - 68.0 °F 90% 30.01 in 10.0 mi South 4.6 mph - 0.02 in Rain Light Rain
3:12 AM 71.1 °F - 68.0 °F 90% 30.01 in 10.0 mi SW 5.8 mph - 0.00 in Rain Light Rain
3:28 AM 71.1 °F - 68.0 °F 90% 30.01 in 10.0 mi SW 5.8 mph - 0.00 in   Overcast
3:53 AM 71.1 °F - 68.0 °F 90% 30.01 in 10.0 mi WSW 3.5 mph - 0.00 in   Overcast
4:53 AM 72.0 °F - 68.0 °F 87% 30.00 in 10.0 mi WSW 4.6 mph - N/A   Overcast
5:53 AM 72.0 °F - 68.0 °F 87% 30.00 in 10.0 mi WSW 5.8 mph - N/A   Overcast
6:53 AM 73.0 °F - 66.9 °F 81% 30.02 in 10.0 mi WSW 5.8 mph - N/A   Mostly Cloudy
7:53 AM 77.0 °F - 66.0 °F 69% 30.03 in 10.0 mi WSW 3.5 mph - N/A   Mostly Cloudy
8:53 AM 80.1 °F 81.9 °F 64.9 °F 60% 30.03 in 10.0 mi Calm Calm - N/A   Scattered Clouds
9:53 AM 80.1 °F 81.9 °F 64.9 °F 60% 30.03 in 10.0 mi ENE 8.1 mph - N/A   Mostly Cloudy
10:53 AM 82.9 °F 86.5 °F 69.1 °F 63% 30.03 in 10.0 mi NE 10.4 mph - N/A   Mostly Cloudy
11:53 AM 82.9 °F 86.5 °F 69.1 °F 63% 30.02 in 10.0 mi NE 12.7 mph - N/A   Overcast
12:53 PM 84.0 °F 87.0 °F 68.0 °F 58% 30.01 in 10.0 mi NE 12.7 mph - N/A   Mostly Cloudy
1:53 PM 82.9 °F 86.5 °F 69.1 °F 63% 29.99 in 10.0 mi NE 11.5 mph - N/A   Clear
2:53 PM 82.9 °F 85.8 °F 68.0 °F 60% 29.99 in 10.0 mi ENE 10.4 mph - N/A   Mostly Cloudy
3:53 PM 81.0 °F 83.3 °F 66.9 °F 62% 29.97 in 10.0 mi NE 9.2 mph - N/A   Mostly Cloudy
4:53 PM 80.1 °F 82.7 °F 68.0 °F 67% 29.97 in 10.0 mi NE 10.4 mph - N/A   Overcast
5:08 PM 79.0 °F - 66.9 °F 66% 29.98 in 10.0 mi NE 9.2 mph - N/A   Overcast
5:21 PM 79.0 °F - 66.9 °F 66% 29.98 in 10.0 mi ENE 8.1 mph - N/A   Overcast
5:53 PM 79.0 °F - 66.9 °F 66% 29.98 in 10.0 mi ENE 6.9 mph - N/A   Overcast
6:53 PM 78.1 °F - 66.9 °F 68% 30.00 in 10.0 mi ENE 4.6 mph - N/A   Overcast
7:19 PM 78.1 °F - 68.0 °F 71% 30.01 in 10.0 mi East 4.6 mph - N/A   Overcast
7:33 PM 77.0 °F - 68.0 °F 74% 30.01 in 10.0 mi ESE 4.6 mph - N/A   Overcast
7:53 PM 75.9 °F - 68.0 °F 76% 30.01 in 10.0 mi SW 8.1 mph - N/A   Overcast
8:53 PM 73.9 °F - 66.9 °F 79% 30.03 in 10.0 mi WSW 8.1 mph - N/A   Scattered Clouds
9:53 PM 73.0 °F - 66.9 °F 81% 30.05 in 10.0 mi SW 4.6 mph - N/A   Scattered Clouds
10:53 PM 73.0 °F - 66.9 °F 81% 30.05 in 10.0 mi WSW 5.8 mph - N/A   Clear
11:53 PM 73.0 °F - 66.0 °F 79% 30.04 in 10.0 mi WSW 5.8 mph - N/A   Clear